Simultaneous Nadir Overpasses (SNOs) Predictions

Prediction of SNOs between GOES-17 and AQUA Satellite Orbit:

Table of predicted SNOs for the next 14.0 days since TLE Epoch: 11/13/2020
Index Date Time (GOES-17) GOES-17 Lat,Lon AQUA Lat,Lon Distance(km) Time Diff (sec)
1 11/13/2020 22:58:04 -0.01,-137.23 -0.79,-140.88 414.43 80
2 11/15/2020 22:45:52 -0.02,-137.22 -0.17,-137.92 79.05 80
3 11/17/2020 22:36:20 -0.02,-137.21 0.45,-134.96 255.53 80
4 11/18/2020 10:54:56 0.01,-137.20 0.63,-140.12 331.51 80
5 11/20/2020 10:45:24 0.01,-137.18 0.00,-137.16 2.49 80
6 11/22/2020 10:33:12 0.01,-137.16 -0.63,-134.20 336.30 80
7 11/22/2020 22:51:55 -0.01,-137.15 -0.51,-139.39 254.69 80
8 11/24/2020 22:42:23 -0.01,-137.13 0.13,-136.43 78.96 80
9 11/26/2020 22:30:11 -0.01,-137.10 0.77,-133.47 412.16 80
10 11/27/2020 10:48:47 0.00,-137.09 0.31,-138.63 175.12 80
